Regional Weather Roundup
Issued by NWS

Home | Current Version | Previous Version | Graphics & Text | Print | Product List | Glossary On
Versions: 1 2 3 4 5 6 7 8 9 10 11 12 13 14 15 16 17 18 19 20 21 22 23 24 25 26 27 28 29 30 31 32 33 34 35 36 37 38 39 40 41 42 43 44 45 46 47 48 49 50
596
ASUS44 KLIX 291907
RWRLA
LOUISIANA WEATHER ROUNDUP
NATIONAL WEATHER SERVICE NEW ORLEANS LA
200 PM CDT SUN MAR 29 2015

NOTE: "FAIR" INDICATES FEW OR NO CLOUDS BELOW 12,000 FEET WITH NO
      SIGNIFICANT WEATHER AND/OR OBSTRUCTIONS TO VISIBILITY.
      SKY/WX - SKY CONDITION AND SIGNIFICANT WEATHER.
      TMP - AIR TEMPERATURE.    DP   - DEWPOINT TEMPERATURE.
      RH  - RELATIVE HUMIDITY.  PRES - PRESSURE.
      HX  - HEAT INDEX.         WCI  - WIND CHILL INDEX.

*  THESE STATIONS ARE NOT NWS OR FAA STATIONS AND ARE NOT UNDER
   NWS QUALITY CONTROL.

LAZ040-048-061>063-065-066-069-292000-
SOUTHEAST LOUISIANA

CITY           SKY/WX    TMP DP  RH WIND       PRES   REMARKS
N.O. AUDUBON     N/A    N/A N/A N/A MISG        N/A
N.O. INTL ARPT PTSUNNY   75  60  59 S10       30.25F
N.O. LAKEFRONT PTSUNNY   76  59  55 S13       30.25F
SLIDELL        CLOUDY    72  58  61 SE8       30.26F
BATON ROUGE    PTSUNNY   78  59  51 S14       30.21F
BOOTHVILLE     SUNNY     73  61  65 S15G21    30.28F
BELLE CHASSE   MOSUNNY   73  59  61 S13       30.25F
BOGALUSA*        N/A     75  55  49 S12       30.26F
GALLIANO*      MOCLDY    78  63  61 MISG      30.26F
NEW ROADS*     MOCLDY    74  60  59 S5        30.20F
GONZALES*      FAIR      79  58  48 SW10G16   30.22F
HAMMOND*       PTSUNNY   75  57  53 SE10G20   30.26F
HOUMA*         MOSUNNY   77  63  61 S9        30.25F
PORT FOURCHON* CLEAR     72  64  78 SE15      30.29F

$$

LAZ041-044-053-054-292000-
SOUTHWEST LOUISIANA

CITY           SKY/WX    TMP DP  RH WIND       PRES   REMARKS
LAKE CHARLES   PTSUNNY   77  61  57 S14G26    30.20F
LAFAYETTE      MOSUNNY   79  60  52 S17G24    30.21F
PATTERSON      MOSUNNY   75  59  57 S15       30.23F
SALT POINT       N/A     74  64  71 VRB7      30.23F
NEW IBERIA     MOSUNNY   79  60  52 S18G29    30.23F
CHENAULT AIRPK NOT AVBL

$$

LAZ027-028-292000-
CENTRAL LOUISIANA

CITY           SKY/WX    TMP DP  RH WIND       PRES   REMARKS
FORT POLK      MOSUNNY   80  59  48 S16G28    30.13F
ALEXANDRIA INT MOSUNNY   79  60  52 S13       30.13F
ALEXANDRIA     MOSUNNY   77  60  55 S15G21    30.16F

$$

LAZ001-002-292000-
NORTHWEST LOUISIANA

CITY           SKY/WX    TMP DP  RH WIND       PRES   REMARKS
SHREVEPORT     SUNNY     81  56  42 S17       30.06F
BARKSDALE AFB  SUNNY     79  55  43 S16       30.06F
DTN SHREVEPORT SUNNY     77  56  48 S17       30.07F

$$

LAZ014-016-292000-
NORTHEAST LOUISIANA

CITY           SKY/WX    TMP DP  RH WIND       PRES   REMARKS
MONROE         SUNNY     76  58  53 SW17G24   30.13F
TALLULAH       SUNNY     76  55  48 S14G30    30.16F

$$




USA.gov is the U.S. government's official web portal to all federal, state and local government web resources and services.